CZ-6A DEB, 56595

Orbit data source: Space-Track

CZ-6A DEB, 56595 is space debris in SSO originally from a launch on Fri, 11 Nov 2022 UTC launched from the Taiyaun Space Center, China (TSC). Debris objects in space refer to the collection of defunct objects orbiting the Earth. Examples of debris include non-operational satellites, rocket bodies, and fragments generated from explosions, collisions, or faulty payload assembly.

Loading next visibility...
Identifier
56595, 2022-151ADT
Orbit
SSO
Country
Flag of CNCN / PRC
Related business
Manufacturer
SAST
Mission
Spacecraft
Bus & Motor
Unknown
Mass
Unknown
Launch date (UTC)
2022-11-11 (3 years ago)
Launch vehicle
Unknown
Launch site
Taiyaun Space Center, China (TSC)
Object type
Payload
Rocket body
Debris
Shape & HBR
Unknown shape, 0.1 m
Radar Cross Section
Small (<0.1 m²)

Expand to show TLE details & history
Last TLE update: 1 day ago

TLE from 1 day ago
0 CZ-6A DEB
1 56595U 22151ADT 25350.74701661  .00001618  00000-0  70473-3 0  9998
2 56595  98.7269 350.3703 0133270 346.1812  13.5731 14.20722879136984
Epoch: 2025-12-16T17:55Z
TLE epoch observation values (Epoch: 2025-12-16T17:55:42.235Z)
Latitude
-0.00001°
Longitude
-4.18247°
Altitude
732.59 km
Speed
7.537 km/s
True Right ascension
23h 21m 28s
True Declination
0° 00' 00"
Sunlit
Object was in daylight at epoch
Visualization orbit readout
Latitude
Unknown
Longitude
Unknown
Altitude
Unknown
Speed
Unknown
Apparent Right ascension
Unknown
Apparent Declination
Unknown
Sunlit
N/A
Visualization observer readout
Local Sidereal Time
00:27:40
Azimuth
Unknown
Elevation
Unknown
Doppler factor
Unknown
Orbital elements
Apogee altitude
915.997 km
Perigee altitude
724.136 km
Semi-major axis
7,198.204 km
Eccentricity
0.01333
Inclination
98.7269°
RAAN
350.3703°
Arg. of periapsis
346.1812°
True anomaly
13.9374°
Mean anomaly
13.5731°
Eccentric anomaly
13.75465°
Mean motion
3.55391 °/min
Orbital period
101.3 mins
BSTAR
0.00070473
Loading maneuver chart data...
Computing Atmospheric mass density...
Loading historical data...
Loading historical data...
Loading historical data...
Loading historical data...
Loading historical data...
Loading historical data...
Loading historical data...

Documentation

Showing up to 5 results
|